Tracking 30417 objects as of 17-May-2025
HD Live streaming from Space Station
objects crossing your sky now

TOPO 1

Track TOPO 1 now!
10-day predictions
TOPO 1 is classified as:


NORAD ID: 4363
Int'l Code: 1970-025B
Perigee: 1,090.7 km
Apogee: 1,092.6 km
Inclination: 99.9 °
Period: 106.9 minutes
Semi major axis: 7462 km
RCS: 0.1794 m2 (medium)
Launch date: April 8, 1970
Source: United States (US)
Launch site: AIR FORCE WESTERN TEST RANGE (AFWTR)
Your satellite tracking list
Your tracking list is empty




NASA's NSSDC Master Catalog

Two Line Element Set (TLE):
1 04363U 70025B   25136.31273738 -.00000019  00000-0  42941-4 0  9996
2 04363  99.8968  50.4191 0001227 239.2771 244.1746 13.46678367707777
Source of the keplerian elements: AFSPC